Location: Czu?�w
(50.1404°N, 18.9919°E)
Time: 03:14:13
(UTC+00:00)

CZ-4B R/B - Pass Details

Date: 27 October 2020
Orbit: 388 x 462 km, 97.6° (Epoch: 27 November)

Event Time Altitude Azimuth Distance (km) Brightness Sun altitude
Rises 16:57:21 0° 7° (N) 2,415 5.0 -14.7°
Reaches altitude 10° 16:59:28 10° 360° (N) 1,528 4.1 -15.1°
Maximum altitude 17:02:32 39° 290° (WNW) 645 2.7 -15.6°
Drops below altitude 10° 17:05:30 10° 220° (SW) 1,476 4.6 -16.0°
Sets 17:07:31 0° 212° (SSW) 2,320 5.5 -16.4°
